owner,sensor,date,latitude,longitude,vertical_datum,mass_concentration_of_oxygen_in_sea_water,qcFlag 
DISL,ioos:station:DISL:MHPA:1,2009-06-01T00:00:00Z,30.6671,-87.9365,3.823,8.45,1111122 
DISL,ioos:station:DISL:MHPA:1,2009-06-01T00:30:00Z,30.6671,-87.9365,3.756,7.27,1111122 
DISL,ioos:station:DISL:MHPA:1,2009-06-01T01:00:00Z,30.6671,-87.9365,3.723,7.15,1111122 
DISL,ioos:station:DISL:MHPA:1,2009-06-01T01:30:00Z,30.6671,-87.9365,3.706,7.27,1111122 
DISL,ioos:station:DISL:MHPA:1,2009-06-01T02:00:00Z,30.6671,-87.9365,3.68,7.44,1111122 
DISL,ioos:station:DISL:MHPA:1,2009-06-01T02:30:00Z,30.6671,-87.9365,3.66,7.22,1111122 
DISL,ioos:station:DISL:MHPA:1,2009-06-01T03:00:00Z,30.6671,-87.9365,3.641,7.0,1111122 
DISL,ioos:station:DISL:MHPA:1,2009-06-01T03:30:00Z,30.6671,-87.9365,3.602,6.83,1111122 
DISL,ioos:station:DISL:MHPA:1,2009-06-01T04:00:00Z,30.6671,-87.9365,3.568,7.05,1111122 
DISL,ioos:station:DISL:MHPA:1,2009-06-01T04:30:00Z,30.6671,-87.9365,3.536,7.08,1111122 
DISL,ioos:station:DISL:MHPA:1,2009-06-01T05:00:00Z,30.6671,-87.9365,3.48,6.94,1111122 
DISL,ioos:station:DISL:MHPA:1,2009-06-01T05:30:00Z,30.6671,-87.9365,3.405,7.03,1111122 
DISL,ioos:station:DISL:MHPA:1,2009-06-01T06:00:00Z,30.6671,-87.9365,3.351,7.08,1111122 
DISL,ioos:station:DISL:MHPA:1,2009-06-01T06:30:00Z,30.6671,-87.9365,3.322,7.24,1111122 
DISL,ioos:station:DISL:MHPA:1,2009-06-01T07:00:00Z,30.6671,-87.9365,3.324,6.65,1111122 
DISL,ioos:station:DISL:MHPA:1,2009-06-01T07:30:00Z,30.6671,-87.9365,3.308,6.8,1111122 
DISL,ioos:station:DISL:MHPA:1,2009-06-01T08:00:00Z,30.6671,-87.9365,3.326,7.0,1111122 
DISL,ioos:station:DISL:MHPA:1,2009-06-01T08:30:00Z,30.6671,-87.9365,3.379,6.89,1111122 
DISL,ioos:station:DISL:MHPA:1,2009-06-01T09:00:00Z,30.6671,-87.9365,3.416,6.79,1111122 
DISL,ioos:station:DISL:MHPA:1,2009-06-01T09:30:00Z,30.6671,-87.9365,3.459,6.65,1111122 
DISL,ioos:station:DISL:MHPA:1,2009-06-01T10:00:00Z,30.6671,-87.9365,3.456,6.46,1111122 
DISL,ioos:station:DISL:MHPA:1,2009-06-01T10:30:00Z,30.6671,-87.9365,3.482,6.44,1111122 
DISL,ioos:station:DISL:MHPA:1,2009-06-01T11:00:00Z,30.6671,-87.9365,3.538,6.41,1111122 
DISL,ioos:station:DISL:MHPA:1,2009-06-01T11:30:00Z,30.6671,-87.9365,3.601,5.98,1111122 
DISL,ioos:station:DISL:MHPA:1,2009-06-01T12:00:00Z,30.6671,-87.9365,3.607,5.94,1111122 
DISL,ioos:station:DISL:MHPA:1,2009-06-01T12:30:00Z,30.6671,-87.9365,3.586,6.31,1111122 
DISL,ioos:station:DISL:MHPA:1,2009-06-01T13:00:00Z,30.6671,-87.9365,3.617,6.33,1111122 
DISL,ioos:station:DISL:MHPA:1,2009-06-01T13:30:00Z,30.6671,-87.9365,3.62,6.19,1111122 
DISL,ioos:station:DISL:MHPA:1,2009-06-01T14:00:00Z,30.6671,-87.9365,3.638,6.07,1111122 
DISL,ioos:station:DISL:MHPA:1,2009-06-01T14:30:00Z,30.6671,-87.9365,3.649,6.04,1111122 
DISL,ioos:station:DISL:MHPA:1,2009-06-01T15:00:00Z,30.6671,-87.9365,3.652,6.35,1111122 
DISL,ioos:station:DISL:MHPA:1,2009-06-01T15:30:00Z,30.6671,-87.9365,3.619,6.6,1111122 
DISL,ioos:station:DISL:MHPA:1,2009-06-01T16:00:00Z,30.6671,-87.9365,3.624,6.73,1111122 
DISL,ioos:station:DISL:MHPA:1,2009-06-01T16:30:00Z,30.6671,-87.9365,3.608,6.69,1111122 
DISL,ioos:station:DISL:MHPA:1,2009-06-01T17:00:00Z,30.6671,-87.9365,3.585,6.91,1111122 
DISL,ioos:station:DISL:MHPA:1,2009-06-01T17:30:00Z,30.6671,-87.9365,3.519,6.97,1111122 
DISL,ioos:station:DISL:MHPA:1,2009-06-01T18:00:00Z,30.6671,-87.9365,3.434,7.98,1111122 
DISL,ioos:station:DISL:MHPA:1,2009-06-01T18:30:00Z,30.6671,-87.9365,3.375,7.56,1111122 
DISL,ioos:station:DISL:MHPA:1,2009-06-01T19:00:00Z,30.6671,-87.9365,3.311,7.32,1111122 
DISL,ioos:station:DISL:MHPA:1,2009-06-01T19:30:00Z,30.6671,-87.9365,3.276,7.66,1111122 
DISL,ioos:station:DISL:MHPA:1,2009-06-01T20:00:00Z,30.6671,-87.9365,3.277,8.34,1111122 
DISL,ioos:station:DISL:MHPA:1,2009-06-01T20:30:00Z,30.6671,-87.9365,3.329,8.04,1111122 
DISL,ioos:station:DISL:MHPA:1,2009-06-01T21:00:00Z,30.6671,-87.9365,3.351,8.65,1111122 
DISL,ioos:station:DISL:MHPA:1,2009-06-01T21:30:00Z,30.6671,-87.9365,3.413,8.58,1111122 
DISL,ioos:station:DISL:MHPA:1,2009-06-01T22:00:00Z,30.6671,-87.9365,3.419,8.87,1111122 
DISL,ioos:station:DISL:MHPA:1,2009-06-01T22:30:00Z,30.6671,-87.9365,3.393,8.66,1111122 
DISL,ioos:station:DISL:MHPA:1,2009-06-01T23:00:00Z,30.6671,-87.9365,3.35,7.85,1111122 
DISL,ioos:station:DISL:MHPA:1,2009-06-01T23:30:00Z,30.6671,-87.9365,3.351,8.17,1111122 
DISL,ioos:station:DISL:MHPA:1,2009-06-02T00:00:00Z,30.6671,-87.9365,3.352,8.65,1111122 
DISL,ioos:station:DISL:MHPA:1,2009-06-02T00:30:00Z,30.6671,-87.9365,3.298,7.15,1111122 
DISL,ioos:station:DISL:MHPA:1,2009-06-02T01:00:00Z,30.6671,-87.9365,3.253,6.52,1111122 
DISL,ioos:station:DISL:MHPA:1,2009-06-02T01:30:00Z,30.6671,-87.9365,3.254,6.69,1111122 
DISL,ioos:station:DISL:MHPA:1,2009-06-02T02:00:00Z,30.6671,-87.9365,3.275,6.71,1111122 
DISL,ioos:station:DISL:MHPA:1,2009-06-02T02:30:00Z,30.6671,-87.9365,3.291,6.67,1111122 
DISL,ioos:station:DISL:MHPA:1,2009-06-02T03:00:00Z,30.6671,-87.9365,3.355,6.92,1111122 
DISL,ioos:station:DISL:MHPA:1,2009-06-02T03:30:00Z,30.6671,-87.9365,3.392,7.18,1111122 
DISL,ioos:station:DISL:MHPA:1,2009-06-02T04:00:00Z,30.6671,-87.9365,3.381,6.62,1111122 
DISL,ioos:station:DISL:MHPA:1,2009-06-02T04:30:00Z,30.6671,-87.9365,3.404,6.77,1111122 
DISL,ioos:station:DISL:MHPA:1,2009-06-02T05:00:00Z,30.6671,-87.9365,3.382,6.49,1111122 
DISL,ioos:station:DISL:MHPA:1,2009-06-02T05:30:00Z,30.6671,-87.9365,3.416,6.36,1111122 
DISL,ioos:station:DISL:MHPA:1,2009-06-02T06:00:00Z,30.6671,-87.9365,3.416,6.39,1111122 
DISL,ioos:station:DISL:MHPA:1,2009-06-02T06:30:00Z,30.6671,-87.9365,3.472,6.59,1111122 
DISL,ioos:station:DISL:MHPA:1,2009-06-02T07:00:00Z,30.6671,-87.9365,3.495,6.39,1111122 
DISL,ioos:station:DISL:MHPA:1,2009-06-02T07:30:00Z,30.6671,-87.9365,3.51,6.36,1111122 
DISL,ioos:station:DISL:MHPA:1,2009-06-02T08:00:00Z,30.6671,-87.9365,3.631,6.4,1111122 
DISL,ioos:station:DISL:MHPA:1,2009-06-02T08:30:00Z,30.6671,-87.9365,3.718,6.04,1111122 
DISL,ioos:station:DISL:MHPA:1,2009-06-02T09:00:00Z,30.6671,-87.9365,3.837,6.12,1111122 
DISL,ioos:station:DISL:MHPA:1,2009-06-02T09:30:00Z,30.6671,-87.9365,3.881,6.15,1111122 
DISL,ioos:station:DISL:MHPA:1,2009-06-02T10:00:00Z,30.6671,-87.9365,3.937,6.15,1111122 
DISL,ioos:station:DISL:MHPA:1,2009-06-02T10:30:00Z,30.6671,-87.9365,4.011,5.84,1111122 
DISL,ioos:station:DISL:MHPA:1,2009-06-02T11:00:00Z,30.6671,-87.9365,4.035,5.47,1111122 
DISL,ioos:station:DISL:MHPA:1,2009-06-02T11:30:00Z,30.6671,-87.9365,4.067,5.56,1111122 
DISL,ioos:station:DISL:MHPA:1,2009-06-02T12:00:00Z,30.6671,-87.9365,4.074,5.61,1111122 
DISL,ioos:station:DISL:MHPA:1,2009-06-02T12:30:00Z,30.6671,-87.9365,4.126,5.74,1111122 
DISL,ioos:station:DISL:MHPA:1,2009-06-02T13:00:00Z,30.6671,-87.9365,4.026,5.63,1111122 
DISL,ioos:station:DISL:MHPA:1,2009-06-02T13:30:00Z,30.6671,-87.9365,4.012,5.56,1111122 
DISL,ioos:station:DISL:MHPA:1,2009-06-02T14:00:00Z,30.6671,-87.9365,3.975,5.7,1111122 
DISL,ioos:station:DISL:MHPA:1,2009-06-02T14:30:00Z,30.6671,-87.9365,3.94,5.99,1111122 
DISL,ioos:station:DISL:MHPA:1,2009-06-02T15:00:00Z,30.6671,-87.9365,3.918,6.27,1111122 
DISL,ioos:station:DISL:MHPA:1,2009-06-02T15:30:00Z,30.6671,-87.9365,3.838,6.27,1111122 
DISL,ioos:station:DISL:MHPA:1,2009-06-02T16:00:00Z,30.6671,-87.9365,3.781,6.39,1111122 
DISL,ioos:station:DISL:MHPA:1,2009-06-02T16:30:00Z,30.6671,-87.9365,3.776,7.03,1111122 
DISL,ioos:station:DISL:MHPA:1,2009-06-02T17:00:00Z,30.6671,-87.9365,3.714,6.79,1111122 
DISL,ioos:station:DISL:MHPA:1,2009-06-02T17:30:00Z,30.6671,-87.9365,3.666,6.79,1111122 
DISL,ioos:station:DISL:MHPA:1,2009-06-02T18:00:00Z,30.6671,-87.9365,3.638,7.14,1111122 
DISL,ioos:station:DISL:MHPA:1,2009-06-02T18:30:00Z,30.6671,-87.9365,3.652,7.47,1111122 
DISL,ioos:station:DISL:MHPA:1,2009-06-02T19:00:00Z,30.6671,-87.9365,3.638,7.4,1111122 
DISL,ioos:station:DISL:MHPA:1,2009-06-02T19:30:00Z,30.6671,-87.9365,3.593,7.7,1111122 
DISL,ioos:station:DISL:MHPA:1,2009-06-02T20:00:00Z,30.6671,-87.9365,3.518,7.57,1111122 
DISL,ioos:station:DISL:MHPA:1,2009-06-02T20:30:00Z,30.6671,-87.9365,3.498,8.03,1111122 
DISL,ioos:station:DISL:MHPA:1,2009-06-02T21:00:00Z,30.6671,-87.9365,3.485,7.99,1111122 
DISL,ioos:station:DISL:MHPA:1,2009-06-02T21:30:00Z,30.6671,-87.9365,3.45,7.95,1111122 
DISL,ioos:station:DISL:MHPA:1,2009-06-02T22:00:00Z,30.6671,-87.9365,3.397,8.17,1111122 
DISL,ioos:station:DISL:MHPA:1,2009-06-02T22:30:00Z,30.6671,-87.9365,3.317,7.84,1111122 
DISL,ioos:station:DISL:MHPA:1,2009-06-02T23:00:00Z,30.6671,-87.9365,3.255,7.51,1111122 
DISL,ioos:station:DISL:MHPA:1,2009-06-02T23:30:00Z,30.6671,-87.9365,3.201,6.97,1111122 
DISL,ioos:station:DISL:MHPA:1,2009-06-03T00:00:00Z,30.6671,-87.9365,3.143,6.87,1111122 
DISL,ioos:station:DISL:MHPA:1,2009-06-03T00:30:00Z,30.6671,-87.9365,3.121,7.06,1111122 
DISL,ioos:station:DISL:MHPA:1,2009-06-03T01:00:00Z,30.6671,-87.9365,3.114,6.83,1111122 
DISL,ioos:station:DISL:MHPA:1,2009-06-03T01:30:00Z,30.6671,-87.9365,3.111,6.99,1111122 
DISL,ioos:station:DISL:MHPA:1,2009-06-03T02:00:00Z,30.6671,-87.9365,3.159,7.12,1111122 
DISL,ioos:station:DISL:MHPA:1,2009-06-03T02:30:00Z,30.6671,-87.9365,3.18,6.75,1111122 
DISL,ioos:station:DISL:MHPA:1,2009-06-03T03:00:00Z,30.6671,-87.9365,3.187,6.93,1111122 
DISL,ioos:station:DISL:MHPA:1,2009-06-03T03:30:00Z,30.6671,-87.9365,3.301,6.55,1111122 
DISL,ioos:station:DISL:MHPA:1,2009-06-03T04:00:00Z,30.6671,-87.9365,3.419,6.51,1111122 
DISL,ioos:station:DISL:MHPA:1,2009-06-03T04:30:00Z,30.6671,-87.9365,3.458,6.65,1111122 
DISL,ioos:station:DISL:MHPA:1,2009-06-03T05:00:00Z,30.6671,-87.9365,3.516,6.59,1111122 
DISL,ioos:station:DISL:MHPA:1,2009-06-03T05:30:00Z,30.6671,-87.9365,3.55,6.58,1111122 
DISL,ioos:station:DISL:MHPA:1,2009-06-03T06:00:00Z,30.6671,-87.9365,3.735,6.82,1111122 
DISL,ioos:station:DISL:MHPA:1,2009-06-03T06:30:00Z,30.6671,-87.9365,3.765,6.94,1111122 
DISL,ioos:station:DISL:MHPA:1,2009-06-03T07:00:00Z,30.6671,-87.9365,3.923,7.01,1111122 
DISL,ioos:station:DISL:MHPA:1,2009-06-03T07:30:00Z,30.6671,-87.9365,4.014,6.74,1111122 
DISL,ioos:station:DISL:MHPA:1,2009-06-03T08:00:00Z,30.6671,-87.9365,4.017,6.69,1111122 
DISL,ioos:station:DISL:MHPA:1,2009-06-03T08:30:00Z,30.6671,-87.9365,4.077,6.09,1111122 
DISL,ioos:station:DISL:MHPA:1,2009-06-03T09:00:00Z,30.6671,-87.9365,4.116,6.18,1111122 
DISL,ioos:station:DISL:MHPA:1,2009-06-03T09:30:00Z,30.6671,-87.9365,4.28,5.96,1111122 
DISL,ioos:station:DISL:MHPA:1,2009-06-03T10:00:00Z,30.6671,-87.9365,4.145,6.18,1111122 
DISL,ioos:station:DISL:MHPA:1,2009-06-03T10:30:00Z,30.6671,-87.9365,4.145,5.47,1111122 
DISL,ioos:station:DISL:MHPA:1,2009-06-03T11:00:00Z,30.6671,-87.9365,4.282,5.22,1111122 
DISL,ioos:station:DISL:MHPA:1,2009-06-03T11:30:00Z,30.6671,-87.9365,4.237,5.48,1111122 
DISL,ioos:station:DISL:MHPA:1,2009-06-03T12:00:00Z,30.6671,-87.9365,4.222,5.6,1111122 
DISL,ioos:station:DISL:MHPA:1,2009-06-03T12:30:00Z,30.6671,-87.9365,4.2,5.56,1111122 
DISL,ioos:station:DISL:MHPA:1,2009-06-03T13:00:00Z,30.6671,-87.9365,4.997,5.58,1111122 
DISL,ioos:station:DISL:MHPA:1,2009-06-03T13:30:00Z,30.6671,-87.9365,4.416,5.83,1111122 
DISL,ioos:station:DISL:MHPA:1,2009-06-03T14:00:00Z,30.6671,-87.9365,4.0,5.84,1111122 
DISL,ioos:station:DISL:MHPA:1,2009-06-03T14:30:00Z,30.6671,-87.9365,4.011,6.11,1111122 
DISL,ioos:station:DISL:MHPA:1,2009-06-03T15:00:00Z,30.6671,-87.9365,4.016,5.95,1111122 
DISL,ioos:station:DISL:MHPA:1,2009-06-03T15:30:00Z,30.6671,-87.9365,4.036,5.2,1111122 
DISL,ioos:station:DISL:MHPA:1,2009-06-03T16:00:00Z,30.6671,-87.9365,3.972,5.72,1111122 
DISL,ioos:station:DISL:MHPA:1,2009-06-03T16:30:00Z,30.6671,-87.9365,3.811,5.85,1111122 
DISL,ioos:station:DISL:MHPA:1,2009-06-03T17:00:00Z,30.6671,-87.9365,3.801,6.02,1111122 
DISL,ioos:station:DISL:MHPA:1,2009-06-03T17:30:00Z,30.6671,-87.9365,3.727,6.04,1111122 
DISL,ioos:station:DISL:MHPA:1,2009-06-03T18:00:00Z,30.6671,-87.9365,3.753,6.01,1111122 
DISL,ioos:station:DISL:MHPA:1,2009-06-03T18:30:00Z,30.6671,-87.9365,3.65,6.28,1111122 
DISL,ioos:station:DISL:MHPA:1,2009-06-03T19:00:00Z,30.6671,-87.9365,3.529,6.56,1111122 
DISL,ioos:station:DISL:MHPA:1,2009-06-03T19:30:00Z,30.6671,-87.9365,3.497,6.43,1111122 
DISL,ioos:station:DISL:MHPA:1,2009-06-03T20:00:00Z,30.6671,-87.9365,3.355,6.73,1111122 
DISL,ioos:station:DISL:MHPA:1,2009-06-03T20:30:00Z,30.6671,-87.9365,3.254,6.92,1111122 
DISL,ioos:station:DISL:MHPA:1,2009-06-03T21:00:00Z,30.6671,-87.9365,3.189,7.0,1111122 
DISL,ioos:station:DISL:MHPA:1,2009-06-03T21:30:00Z,30.6671,-87.9365,3.138,7.0,1111122 
DISL,ioos:station:DISL:MHPA:1,2009-06-03T22:00:00Z,30.6671,-87.9365,3.16,7.23,1111122 
DISL,ioos:station:DISL:MHPA:1,2009-06-03T22:30:00Z,30.6671,-87.9365,3.319,6.81,1111122 
DISL,ioos:station:DISL:MHPA:1,2009-06-03T23:00:00Z,30.6671,-87.9365,3.2,6.61,1111122 
DISL,ioos:station:DISL:MHPA:1,2009-06-03T23:30:00Z,30.6671,-87.9365,3.126,6.53,1111122 
DISL,ioos:station:DISL:MHPA:1,2009-06-04T00:00:00Z,30.6671,-87.9365,3.086,6.72,1111122 
DISL,ioos:station:DISL:MHPA:1,2009-06-04T00:30:00Z,30.6671,-87.9365,3.018,7.43,1111122 
DISL,ioos:station:DISL:MHPA:1,2009-06-04T01:00:00Z,30.6671,-87.9365,2.963,7.12,1111122 
DISL,ioos:station:DISL:MHPA:1,2009-06-04T01:30:00Z,30.6671,-87.9365,3.033,6.63,1111122 
DISL,ioos:station:DISL:MHPA:1,2009-06-04T02:00:00Z,30.6671,-87.9365,3.042,6.18,1111122 
DISL,ioos:station:DISL:MHPA:1,2009-06-04T02:30:00Z,30.6671,-87.9365,3.016,6.35,1111122 
DISL,ioos:station:DISL:MHPA:1,2009-06-04T03:00:00Z,30.6671,-87.9365,3.053,6.32,1111122 
DISL,ioos:station:DISL:MHPA:1,2009-06-04T03:30:00Z,30.6671,-87.9365,3.3,6.21,1111122 
DISL,ioos:station:DISL:MHPA:1,2009-06-04T04:00:00Z,30.6671,-87.9365,3.451,5.84,1111122 
DISL,ioos:station:DISL:MHPA:1,2009-06-04T04:30:00Z,30.6671,-87.9365,3.441,5.98,1111122 
DISL,ioos:station:DISL:MHPA:1,2009-06-04T05:00:00Z,30.6671,-87.9365,3.535,5.69,1111122 
DISL,ioos:station:DISL:MHPA:1,2009-06-04T05:30:00Z,30.6671,-87.9365,3.775,5.65,1111122 
DISL,ioos:station:DISL:MHPA:1,2009-06-04T06:00:00Z,30.6671,-87.9365,3.824,5.85,1111122 
DISL,ioos:station:DISL:MHPA:1,2009-06-04T06:30:00Z,30.6671,-87.9365,3.882,6.02,1111122 
DISL,ioos:station:DISL:MHPA:1,2009-06-04T07:00:00Z,30.6671,-87.9365,4.37,6.43,1111122 
DISL,ioos:station:DISL:MHPA:1,2009-06-04T07:30:00Z,30.6671,-87.9365,4.237,6.34,1111122 
DISL,ioos:station:DISL:MHPA:1,2009-06-04T08:00:00Z,30.6671,-87.9365,4.082,6.34,1111122 
DISL,ioos:station:DISL:MHPA:1,2009-06-04T08:30:00Z,30.6671,-87.9365,4.105,6.06,1111122 
DISL,ioos:station:DISL:MHPA:1,2009-06-04T09:00:00Z,30.6671,-87.9365,4.391,5.97,1111122 
DISL,ioos:station:DISL:MHPA:1,2009-06-04T09:30:00Z,30.6671,-87.9365,4.267,5.98,1111122 
DISL,ioos:station:DISL:MHPA:1,2009-06-04T10:00:00Z,30.6671,-87.9365,4.283,5.86,1111122 
DISL,ioos:station:DISL:MHPA:1,2009-06-04T10:30:00Z,30.6671,-87.9365,4.318,5.87,1111122 
DISL,ioos:station:DISL:MHPA:1,2009-06-04T11:00:00Z,30.6671,-87.9365,4.395,5.83,1111122 
DISL,ioos:station:DISL:MHPA:1,2009-06-04T11:30:00Z,30.6671,-87.9365,4.384,5.88,1111122 
DISL,ioos:station:DISL:MHPA:1,2009-06-04T12:00:00Z,30.6671,-87.9365,4.436,5.96,1111122 
DISL,ioos:station:DISL:MHPA:1,2009-06-04T12:30:00Z,30.6671,-87.9365,4.643,5.94,1111122 
DISL,ioos:station:DISL:MHPA:1,2009-06-04T13:00:00Z,30.6671,-87.9365,4.696,5.93,1111122 
DISL,ioos:station:DISL:MHPA:1,2009-06-04T13:30:00Z,30.6671,-87.9365,4.74,5.97,1111122 
DISL,ioos:station:DISL:MHPA:1,2009-06-04T14:00:00Z,30.6671,-87.9365,4.691,6.04,1111122 
DISL,ioos:station:DISL:MHPA:1,2009-06-04T14:30:00Z,30.6671,-87.9365,4.689,6.0,1111122 
DISL,ioos:station:DISL:MHPA:1,2009-06-04T15:00:00Z,30.6671,-87.9365,4.663,5.97,1111122 
DISL,ioos:station:DISL:MHPA:1,2009-06-04T15:30:00Z,30.6671,-87.9365,4.64,5.95,1111122 
DISL,ioos:station:DISL:MHPA:1,2009-06-04T16:00:00Z,30.6671,-87.9365,4.615,5.79,1111122 
DISL,ioos:station:DISL:MHPA:1,2009-06-04T16:30:00Z,30.6671,-87.9365,4.497,6.41,1111122 
DISL,ioos:station:DISL:MHPA:1,2009-06-04T17:00:00Z,30.6671,-87.9365,4.412,6.87,1111122 
DISL,ioos:station:DISL:MHPA:1,2009-06-04T17:30:00Z,30.6671,-87.9365,4.467,6.87,1111122 
DISL,ioos:station:DISL:MHPA:1,2009-06-04T18:00:00Z,30.6671,-87.9365,4.349,6.62,1111122 
DISL,ioos:station:DISL:MHPA:1,2009-06-04T18:30:00Z,30.6671,-87.9365,4.236,6.3,1111122 
DISL,ioos:station:DISL:MHPA:1,2009-06-04T19:00:00Z,30.6671,-87.9365,4.387,6.19,1111122 
DISL,ioos:station:DISL:MHPA:1,2009-06-04T19:30:00Z,30.6671,-87.9365,4.148,6.86,1111122 
DISL,ioos:station:DISL:MHPA:1,2009-06-04T20:00:00Z,30.6671,-87.9365,3.911,7.29,1111122 
DISL,ioos:station:DISL:MHPA:1,2009-06-04T20:30:00Z,30.6671,-87.9365,3.862,7.45,1111122 
DISL,ioos:station:DISL:MHPA:1,2009-06-04T21:00:00Z,30.6671,-87.9365,3.722,7.6,1111122 
DISL,ioos:station:DISL:MHPA:1,2009-06-04T21:30:00Z,30.6671,-87.9365,3.757,7.53,1111122 
DISL,ioos:station:DISL:MHPA:1,2009-06-04T22:00:00Z,30.6671,-87.9365,3.811,7.43,1111122 
DISL,ioos:station:DISL:MHPA:1,2009-06-04T22:30:00Z,30.6671,-87.9365,3.604,7.19,1111122 
DISL,ioos:station:DISL:MHPA:1,2009-06-04T23:00:00Z,30.6671,-87.9365,3.374,7.3,1111122 
DISL,ioos:station:DISL:MHPA:1,2009-06-04T23:30:00Z,30.6671,-87.9365,3.265,6.8,1111122 
DISL,ioos:station:DISL:MHPA:1,2009-06-05T00:00:00Z,30.6671,-87.9365,3.256,6.72,1111122 
DISL,ioos:station:DISL:MHPA:1,2009-06-05T00:30:00Z,30.6671,-87.9365,3.227,7.12,1111122 
DISL,ioos:station:DISL:MHPA:1,2009-06-05T01:00:00Z,30.6671,-87.9365,3.164,6.81,1111122 
DISL,ioos:station:DISL:MHPA:1,2009-06-05T01:30:00Z,30.6671,-87.9365,3.167,6.58,1111122 
DISL,ioos:station:DISL:MHPA:1,2009-06-05T02:00:00Z,30.6671,-87.9365,3.204,6.69,1111122 
DISL,ioos:station:DISL:MHPA:1,2009-06-05T02:30:00Z,30.6671,-87.9365,3.058,6.69,1111122 
DISL,ioos:station:DISL:MHPA:1,2009-06-05T03:00:00Z,30.6671,-87.9365,2.986,6.62,1111122 
DISL,ioos:station:DISL:MHPA:1,2009-06-05T03:30:00Z,30.6671,-87.9365,3.029,6.44,1111122 
DISL,ioos:station:DISL:MHPA:1,2009-06-05T04:00:00Z,30.6671,-87.9365,3.019,6.36,1111122 
DISL,ioos:station:DISL:MHPA:1,2009-06-05T04:30:00Z,30.6671,-87.9365,2.995,6.4,1111122 
DISL,ioos:station:DISL:MHPA:1,2009-06-05T05:00:00Z,30.6671,-87.9365,3.064,6.37,1111122 
DISL,ioos:station:DISL:MHPA:1,2009-06-05T05:30:00Z,30.6671,-87.9365,3.272,6.28,1111122 
DISL,ioos:station:DISL:MHPA:1,2009-06-05T06:00:00Z,30.6671,-87.9365,3.323,6.31,1111122 
DISL,ioos:station:DISL:MHPA:1,2009-06-05T06:30:00Z,30.6671,-87.9365,3.248,6.16,1111122 
DISL,ioos:station:DISL:MHPA:1,2009-06-05T07:00:00Z,30.6671,-87.9365,3.44,6.24,1111122 
DISL,ioos:station:DISL:MHPA:1,2009-06-05T07:30:00Z,30.6671,-87.9365,3.47,6.24,1111122 
DISL,ioos:station:DISL:MHPA:1,2009-06-05T08:00:00Z,30.6671,-87.9365,3.525,6.32,1111122 
DISL,ioos:station:DISL:MHPA:1,2009-06-05T08:30:00Z,30.6671,-87.9365,3.54,6.35,1111122 
DISL,ioos:station:DISL:MHPA:1,2009-06-05T09:00:00Z,30.6671,-87.9365,3.573,6.24,1111122 
DISL,ioos:station:DISL:MHPA:1,2009-06-05T09:30:00Z,30.6671,-87.9365,3.692,6.3,1111122 
DISL,ioos:station:DISL:MHPA:1,2009-06-05T10:00:00Z,30.6671,-87.9365,3.739,6.18,1111122 
DISL,ioos:station:DISL:MHPA:1,2009-06-05T10:30:00Z,30.6671,-87.9365,3.886,6.23,1111122 
DISL,ioos:station:DISL:MHPA:1,2009-06-05T11:00:00Z,30.6671,-87.9365,3.837,6.22,1111122 
DISL,ioos:station:DISL:MHPA:1,2009-06-05T11:30:00Z,30.6671,-87.9365,3.828,6.14,1111122 
DISL,ioos:station:DISL:MHPA:1,2009-06-05T12:00:00Z,30.6671,-87.9365,3.892,6.21,1111122 
DISL,ioos:station:DISL:MHPA:1,2009-06-05T12:30:00Z,30.6671,-87.9365,4.019,6.19,1111122 
DISL,ioos:station:DISL:MHPA:1,2009-06-05T13:00:00Z,30.6671,-87.9365,4.163,6.16,1111122 
DISL,ioos:station:DISL:MHPA:1,2009-06-05T13:30:00Z,30.6671,-87.9365,4.186,6.15,1111122 
DISL,ioos:station:DISL:MHPA:1,2009-06-05T14:00:00Z,30.6671,-87.9365,4.19,6.18,1111122 
DISL,ioos:station:DISL:MHPA:1,2009-06-05T14:30:00Z,30.6671,-87.9365,4.236,6.22,1111122 
DISL,ioos:station:DISL:MHPA:1,2009-06-05T15:00:00Z,30.6671,-87.9365,4.241,6.24,1111122 
DISL,ioos:station:DISL:MHPA:1,2009-06-05T15:30:00Z,30.6671,-87.9365,4.275,6.27,1111122 
DISL,ioos:station:DISL:MHPA:1,2009-06-05T16:00:00Z,30.6671,-87.9365,4.221,6.32,1111122 
DISL,ioos:station:DISL:MHPA:1,2009-06-05T16:30:00Z,30.6671,-87.9365,4.178,6.28,1111122 
DISL,ioos:station:DISL:MHPA:1,2009-06-05T17:00:00Z,30.6671,-87.9365,4.204,6.37,1111122 
DISL,ioos:station:DISL:MHPA:1,2009-06-05T17:30:00Z,30.6671,-87.9365,4.154,6.48,1111122 
DISL,ioos:station:DISL:MHPA:1,2009-06-05T18:00:00Z,30.6671,-87.9365,4.071,6.39,1111122 
DISL,ioos:station:DISL:MHPA:1,2009-06-05T18:30:00Z,30.6671,-87.9365,3.927,6.64,1111122 
DISL,ioos:station:DISL:MHPA:1,2009-06-05T19:00:00Z,30.6671,-87.9365,3.834,6.67,1111122 
DISL,ioos:station:DISL:MHPA:1,2009-06-05T19:30:00Z,30.6671,-87.9365,3.729,6.81,1111122 
DISL,ioos:station:DISL:MHPA:1,2009-06-05T20:00:00Z,30.6671,-87.9365,3.594,6.9,1111122 
DISL,ioos:station:DISL:MHPA:1,2009-06-05T20:30:00Z,30.6671,-87.9365,3.456,7.06,1111122 
DISL,ioos:station:DISL:MHPA:1,2009-06-05T21:00:00Z,30.6671,-87.9365,3.312,7.18,1111122 
DISL,ioos:station:DISL:MHPA:1,2009-06-05T21:30:00Z,30.6671,-87.9365,3.169,7.39,1111122 
DISL,ioos:station:DISL:MHPA:1,2009-06-05T22:00:00Z,30.6671,-87.9365,3.025,7.51,1111122 
DISL,ioos:station:DISL:MHPA:1,2009-06-05T22:30:00Z,30.6671,-87.9365,2.876,7.37,1111122 
DISL,ioos:station:DISL:MHPA:1,2009-06-05T23:00:00Z,30.6671,-87.9365,2.714,7.52,1111122 
DISL,ioos:station:DISL:MHPA:1,2009-06-05T23:30:00Z,30.6671,-87.9365,2.571,7.68,1111122 
DISL,ioos:station:DISL:MHPA:1,2009-06-06T00:00:00Z,30.6671,-87.9365,2.44,7.63,1111122 
DISL,ioos:station:DISL:MHPA:1,2009-06-06T00:30:00Z,30.6671,-87.9365,2.331,7.48,1111122 
DISL,ioos:station:DISL:MHPA:1,2009-06-06T01:00:00Z,30.6671,-87.9365,2.244,7.63,1111122 
DISL,ioos:station:DISL:MHPA:1,2009-06-06T01:30:00Z,30.6671,-87.9365,2.186,7.57,1111122 
DISL,ioos:station:DISL:MHPA:1,2009-06-06T02:00:00Z,30.6671,-87.9365,2.155,7.37,1111122 
DISL,ioos:station:DISL:MHPA:1,2009-06-06T02:30:00Z,30.6671,-87.9365,2.15,7.33,1111122 
DISL,ioos:station:DISL:MHPA:1,2009-06-06T03:00:00Z,30.6671,-87.9365,2.189,7.29,1111122 
DISL,ioos:station:DISL:MHPA:1,2009-06-06T03:30:00Z,30.6671,-87.9365,2.301,7.17,1111122 
DISL,ioos:station:DISL:MHPA:1,2009-06-06T04:00:00Z,30.6671,-87.9365,2.347,7.15,1111122 
DISL,ioos:station:DISL:MHPA:1,2009-06-06T04:30:00Z,30.6671,-87.9365,2.278,7.07,1111122 
DISL,ioos:station:DISL:MHPA:1,2009-06-06T05:00:00Z,30.6671,-87.9365,2.289,7.02,1111122 
DISL,ioos:station:DISL:MHPA:1,2009-06-06T05:30:00Z,30.6671,-87.9365,2.411,6.98,1111122 
DISL,ioos:station:DISL:MHPA:1,2009-06-06T06:00:00Z,30.6671,-87.9365,2.515,6.78,1111122 
DISL,ioos:station:DISL:MHPA:1,2009-06-06T06:30:00Z,30.6671,-87.9365,2.676,6.88,1111122 
DISL,ioos:station:DISL:MHPA:1,2009-06-06T07:00:00Z,30.6671,-87.9365,2.879,6.83,1111122 
DISL,ioos:station:DISL:MHPA:1,2009-06-06T07:30:00Z,30.6671,-87.9365,3.027,6.7,1111122 
DISL,ioos:station:DISL:MHPA:1,2009-06-06T08:00:00Z,30.6671,-87.9365,3.206,6.53,1111122 
DISL,ioos:station:DISL:MHPA:1,2009-06-06T08:30:00Z,30.6671,-87.9365,3.366,6.6,1111122 
DISL,ioos:station:DISL:MHPA:1,2009-06-06T09:00:00Z,30.6671,-87.9365,3.478,6.4,1111122 
DISL,ioos:station:DISL:MHPA:1,2009-06-06T09:30:00Z,30.6671,-87.9365,3.533,6.24,1111122 
DISL,ioos:station:DISL:MHPA:1,2009-06-06T10:00:00Z,30.6671,-87.9365,3.645,6.12,1111122 
DISL,ioos:station:DISL:MHPA:1,2009-06-06T10:30:00Z,30.6671,-87.9365,3.79,6.01,1111122 
DISL,ioos:station:DISL:MHPA:1,2009-06-06T11:00:00Z,30.6671,-87.9365,3.801,5.95,1111122 
DISL,ioos:station:DISL:MHPA:1,2009-06-06T11:30:00Z,30.6671,-87.9365,3.962,5.55,1111122 
DISL,ioos:station:DISL:MHPA:1,2009-06-06T12:00:00Z,30.6671,-87.9365,4.094,6.06,1111122 
DISL,ioos:station:DISL:MHPA:1,2009-06-06T12:30:00Z,30.6671,-87.9365,4.221,6.19,1111122 
DISL,ioos:station:DISL:MHPA:1,2009-06-06T13:00:00Z,30.6671,-87.9365,4.294,5.8,1111122 
DISL,ioos:station:DISL:MHPA:1,2009-06-06T13:30:00Z,30.6671,-87.9365,4.381,5.8,1111122 
DISL,ioos:station:DISL:MHPA:1,2009-06-06T14:00:00Z,30.6671,-87.9365,4.465,5.89,1111122 
DISL,ioos:station:DISL:MHPA:1,2009-06-06T14:30:00Z,30.6671,-87.9365,4.499,5.97,1111122 
DISL,ioos:station:DISL:MHPA:1,2009-06-06T15:00:00Z,30.6671,-87.9365,4.543,5.9,1111122 
DISL,ioos:station:DISL:MHPA:1,2009-06-06T15:30:00Z,30.6671,-87.9365,4.58,6.21,1111122 